[Iaude] MPEC V117: 2023 VN3 [a=1.21,e=0.21,i=4.7,H=25.1]
    mpec at marsden.cfa.harvard.edu 
    mpec at marsden.cfa.harvard.edu
       
    Wed Nov  8 08:59:02 EST 2023
    
    
  
M.P.E.C. 2023-V117                             Issued 2023 November 8, 13:57 UT
     The Minor Planet Electronic Circulars contain information on unusual
         minor planets, routine data on comets and natural satellites,
         and occasional editorial announcements.  They are published
    on behalf of Division F of the International Astronomical Union by the
          Minor Planet Center, Smithsonian Astrophysical Observatory,
                          Cambridge, MA 02138, U.S.A.
			  
             Prepared using the Tamkin Foundation Computer Network
                              MPC at CFA.HARVARD.EDU
            URL https://www.minorplanetcenter.net/    ISSN 1523-6714
                                    2023 VN3                                    
Observations:
     K23V03N  C2023 11 04.09174 21 56 07.31 +03 43 09.4          19.5 GVEV117703
     K23V03N  C2023 11 04.10232 21 56 18.27 +03 46 05.5          19.7 GVEV117703
     K23V03N*0C2023 11 05.16466622 15 54.810+08 30 13.86         19.33GVEV117G96
     K23V03N 0C2023 11 05.16982222 15 59.954+08 31 33.10               VEV117G96
     K23V03N 0C2023 11 05.17498022 16 05.146+08 32 52.84               VEV117G96
     K23V03N 0C2023 11 05.18014122 16 10.243+08 34 11.68         19.36GVEV117G96
     K23V03N  C2023 11 07.13115 22 50 20.09 +16 15 23.0          19.5 GVEV117703
     K23V03N  C2023 11 07.13683 22 50 25.30 +16 16 36.8          21.4 GVEV117703
     K23V03N  C2023 11 07.14252 22 50 30.40 +16 17 49.1          20.3 GVEV117703
     K23V03N  C2023 11 07.14820 22 50 35.60 +16 19 01.0          19.5 GVEV117703
     K23V03N mC2023 11 08.17135123 07 04.411+19 42 52.85         19.20GVEV117I52
     K23V03N mC2023 11 08.17178723 07 04.796+19 42 57.82         19.54GVEV117I52
     K23V03N mC2023 11 08.17221123 07 05.153+19 43 02.28         19.20GVEV117I52
Observer details:
703 Catalina Sky Survey.  Observers J. K. Hogan, G. J. Leonard.  Measurers B.
    Gray, D. Rankin, F. C. Shelly.  0.68-m Schmidt + 10K CCD.
G96 Mt. Lemmon Survey.  Observer J. B. Fazekas.  Measurers X. Liao, K. Fundin,
    V. Gonano, E. Chaghafi, M. T. Mazzucato, T. G. Fisher, E. J. Christensen,
    D. Fay, J. B. Fazekas, D. C. Fuls, A. R. Gibbs, A. D. Grauer, H. Groeller,
    J. K. Hogan, R. A. Kowalski, S. M. Larson, G. J. Leonard, D. Rankin, R. L.
    Seaman, A. Serrano, F. C. Shelly, K. W. Wierzchos.  1.5-m reflector + 10K
    CCD.
I52 Steward Observatory, Mt. Lemmon Station.  Observer H. Groeller.  Measurers
    E. C. Beshore, D. Fay, J. B. Fazekas, D. C. Fuls, A. R. Gibbs, A. D.
    Grauer, H. Groeller, J. K. Hogan, R. A. Kowalski, S. M. Larson, G. J.
    Leonard, D. Rankin, R. L. Seaman, F. C. Shelly, K. W. Wierzchos.  1.0-m
    prime focus + CCD.
Orbital elements:
2023 VN3                                                 Earth MOID = 0.0015 AU
Epoch 2023 Sept. 13.0 TT = JDT 2460200.5                MPC                     
M 349.97725              (2000.0)            P               Q                  
n   0.73798267     Peri.  322.36072     +0.99668162     +0.06760930             
a   1.2127518      Node    33.84661     -0.03937438     +0.88783568             
e   0.2123141      Incl.    4.66819     -0.07124195     +0.45516677             
P   1.34           H   25.18          G   0.15           U   8                  
Residuals in seconds of arc
231104 703  0.4-  0.7-    231105 G96  0.8-  0.6-    231108 I52  0.1-  0.1-
231104 703  0.8+  0.6+    231107 703  1.0-  0.6-    231108 I52  0.2+  0.0
231105 G96  0.0   0.2+    231107 703  0.1+  0.8+    231108 I52  0.1+  0.3-
231105 G96  0.2-  0.2-    231107 703  0.4-  0.6+
231105 G96  0.3+  0.1+    231107 703  0.6+  0.3+
Ephemeris:
2023 VN3                 a,e,i = 1.21, 0.21, 5                   q = 0.9553
Date    TT    R. A. (2000) Decl.     Delta      r    Elong.  Phase     V
2023 10 09    16 46 58.6 -42 20 43   0.09102 0.9605    62.5   112.7    24.2
...
2023 10 24    18 45 57.6 -34 08 37   0.04541 0.9803    70.1   107.4    22.4
...
2023 11 01    20 56 48.2 -10 37 18   0.03085 0.9962    95.6    82.6    20.5
...
2023 11 07    22 48 08.0 +15 48 19   0.03402 1.0102   123.0    55.4    19.9
2023 11 08    23 04 24.8 +19 11 23   0.03578 1.0126   126.4    51.9    19.9
2023 11 09    23 19 43.6 +22 09 19   0.03781 1.0152   129.4    49.0    19.9
...
2023 11 15    00 31 43.9 +32 59 34   0.05379 1.0311   140.0    38.1    20.4
...
2023 11 23    01 29 16.9 +37 55 22   0.08063 1.0543   144.5    33.0    21.2
...
2023 12 08    02 26 32.6 +39 16 31   0.1402  1.1020   144.2    31.5    22.5
A. U. Tomatic                (C) Copyright 2023 MPC           M.P.E.C. 2023-V117
    
    
More information about the Iaude
mailing list